Location: Recife
(8.0585°S, 34.8848°W)
Time: 13:25:57
(UTC-03:00)

Vanguard 1 Rocket - Pass Details

Date: 23 April 2026
Orbit: 655 x 4212 km, 34.3° (Epoch: 12 May)

Event Time Altitude Azimuth Distance (km) Brightness Sun altitude
Rises 18:59:34 0° 278° (W) 6,424 13.1 -26.5°
Reaches altitude 10° 19:05:08 10° 293° (WNW) 5,971 12.5 -27.8°
Maximum altitude 19:19:01 22° 337° (NNW) 5,989 11.8 -31.2°
Drops below altitude 10° 19:36:29 10° 20° (NNE) 7,401 11.9 -35.5°
Sets 19:45:13 0° 34° (NE) 8,282 12.1 -37.6°
